Fort Loudoun Observed Data For Previous 48 Hours

Caption
Day and Hour Reservoir Elevation (behind dam)* Tailwater Elevation (below dam)* Average Hourly Discharge*
11/17/2017 2 AM EST 810.44 741.65 33,856
11/17/2017 3 AM EST 810.44 741.69 33,881
11/17/2017 4 AM EST 810.40 741.68 33,862
11/17/2017 5 AM EST 810.38 741.71 33,866
11/17/2017 6 AM EST 810.36 741.75 33,829
11/17/2017 7 AM EST 810.31 741.80 33,880
11/17/2017 8 AM EST 810.35 741.80 33,888
11/17/2017 9 AM EST 810.33 741.79 33,913
11/17/2017 10 AM EST 810.34 741.77 33,871
11/17/2017 11 AM EST 810.35 741.75 33,909
11/17/2017 12 PM EST 810.34 741.79 33,888
11/17/2017 1 PM EST 810.36 741.67 33,895
11/17/2017 2 PM EST 810.42 740.92 33,856
11/17/2017 3 PM EST 810.43 740.58 33,680
11/17/2017 4 PM EST 810.45 740.47 30,634
11/17/2017 5 PM EST 810.49 740.44 25,103
11/17/2017 6 PM EST 810.52 740.46 22,545
11/17/2017 7 PM EST 810.55 740.54 22,528
11/17/2017 8 PM EST 810.57 740.54 22,591
11/17/2017 9 PM EST 810.58 740.51 22,569
11/17/2017 10 PM EST 810.60 740.49 22,592
11/17/2017 11 PM EST 810.64 740.50 22,545
11/18/2017 12 AM EST 810.67 740.51 22,508
11/18/2017 1 AM EST 810.59 740.52 22,537
11/18/2017 2 AM EST 810.63 740.53 22,504
11/18/2017 3 AM EST 810.61 740.56 22,524
11/18/2017 4 AM EST 810.61 740.56 22,499
11/18/2017 5 AM EST 810.61 740.59 22,486
11/18/2017 6 AM EST 810.59 740.56 22,533
11/18/2017 7 AM EST 810.58 740.54 22,493
11/18/2017 8 AM EST 810.57 740.53 22,525
11/18/2017 9 AM EST 810.63 740.53 22,520
11/18/2017 10 AM EST 810.59 740.55 22,514
11/18/2017 11 AM EST 810.60 740.57 22,487
11/18/2017 12 PM EST 810.61 740.57 22,481
11/18/2017 1 PM EST 810.61 740.54 22,470
11/18/2017 2 PM EST 810.54 740.55 22,532
11/18/2017 3 PM EST 810.54 740.56 22,539
11/18/2017 4 PM EST 810.53 740.57 22,504
11/18/2017 5 PM EST 810.50 740.56 22,550
11/18/2017 6 PM EST 810.57 740.58 22,559
11/18/2017 7 PM EST 810.52 740.59 22,501
11/18/2017 8 PM EST 810.54 740.59 22,509
11/18/2017 9 PM EST 810.63 740.60 22,585
11/18/2017 10 PM EST 810.51 740.65 22,612
11/18/2017 11 PM EST 810.42 740.79 22,647
11/19/2017 12 AM EST 810.44 740.79 22,622
11/19/2017 1 AM EST 810.42 740.69 22,600
11/19/2017 2 AM EST 810.39 740.61 22,625
11/19/2017 3 AM EST 810.38 740.61 22,611

Elevations are in feet above sea level. Discharges are in cubic feet per second and are reported at the end of the hour.